User: anonymous   Login
Location: *
(37.5724°S, 58.0067°E)
Time: 17:03:04
(UTC+00:00)
Language:

USA 305 - Orbit

View from above orbital plane
View from above orbital plane
View from above satellite
View from above satellite

Ground track
Ground track

The orbit data is extracted from the following two-line orbital elements,

1 45873U 20046A   20327.21271376 0.00001900  00000-0  15897-3 0    08
2 45873  53.9791  83.6810 0006001 264.9935  95.0064 14.98009830    00
Epoch (UTC): 22 November 2020 05:06:18
Eccentricity: 0.0006001
inclination: 53.9791°
perigee height: 569 km
apogee height: 577 km
right ascension of ascending node: 83.6810°
argument of perigee: 264.9935°
revolutions per day: 14.98009830
mean anomaly at epoch: 95.0064°
orbit number at epoch: 0

The dashed part of the orbit path shows where the satellite is in the earth's shadow,  

DLR